Retour au catalogue

STARLINK-4751

ActifCommunicationsVLEO
NORAD 53825·PAYLOAD·🇺🇸 United States

Lancé Sep 19, 2022 depuis Cape Canaveral Space Force Station

Loading…

Prochains Passages (prochaines 24 heures)

TLE

FraisSource: CelesTrak SupGP

Époque: Sep 14, 2026, 21:49 UTC

1 53825C 22114H   26257.90951389 -.00029154  00000+0 -83422-3 0  2570
2 53825  53.1576 165.9349 0001260  93.6286 238.7210 15.35409367    19

Suivez STARLINK-4751 en temps réel avec AllMySat

Download on the App Store